Location: Goettingen
(51.5300°N, 9.9433°E)
Time: 01:41:29
(UTC+01:00)

ISS - Pass Details

Date: 13 November 2025
Orbit: 414 x 420 km, 51.6° (Epoch: 18 November)

Event Time Altitude Azimuth Distance (km) Brightness Sun altitude
Rises 18:11:35 0° 194° (SSW) 2,340 0.4 -15.2°
Reaches altitude 10° 18:14:43 10° 161° (SSE) 1,483 -1.1 -15.7°
Enters shadow 18:15:31 12° 147° (SSE) 1,391 -1.4 -15.8°
